This is the latest recevied weather packets stored in our database for station/object N6DZK. If no packets are shown the sender has not sent any weather packets the latest 10 day(s).
| Time | Temp. | Humidity | Pressure | Rain* | Wind** | Luminosity | Snow |
|---|---|---|---|---|---|---|---|
| 1777843091 | 20° C | 52% | 1013.1 hPa | 0 mm | - | 605 W/m² | - |
| 1777842787 | 20° C | 52% | 1013 hPa | 0 mm | - | 565 W/m² | - |
| 1777842487 | 20.56° C | 52% | 1013.4 hPa | 0 mm | - | 780 W/m² | - |
| 1777842185 | 21.11° C | 50% | 1013.3 hPa | 0 mm | - | 650 W/m² | - |
| 1777841880 | 21.67° C | 50% | 1013.2 hPa | 0 mm | - | 869 W/m² | - |
| 1777841577 | 21.11° C | 50% | 1013.2 hPa | 0 mm | - | 1251 W/m² | - |
| 1777841273 | 20.56° C | 50% | 1013.3 hPa | 0 mm | - | 996 W/m² | - |
| 1777840971 | 20.56° C | 52% | 1013.1 hPa | 0 mm | - | 937 W/m² | - |
| 1777840668 | 20.56° C | 52% | 1013.3 hPa | 0 mm | - | 595 W/m² | - |
| 1777840365 | 20° C | 53% | 1013.2 hPa | 0 mm | - | 597 W/m² | - |
| 1777840062 | 20° C | 53% | 1013.4 hPa | 0 mm | - | 517 W/m² | - |
| 1777839760 | 20° C | 53% | 1013.6 hPa | 0 mm | - | 571 W/m² | - |
| 1777839458 | 20° C | 53% | 1013.4 hPa | 0 mm | - | 519 W/m² | - |
| 1777839155 | 19.44° C | 52% | 1013.7 hPa | 0 mm | - | 643 W/m² | - |
| 1777838852 | 19.44° C | 54% | 1013.7 hPa | 0 mm | - | 479 W/m² | - |
| 1777838548 | 19.44° C | 55% | 1013.6 hPa | 0 mm | - | 402 W/m² | - |
| 1777838245 | 18.89° C | 54% | 1013.5 hPa | 0 mm | - | 374 W/m² | - |
| 1777837942 | 19.44° C | 53% | 1013.6 hPa | 0 mm | - | 333 W/m² | - |
| 1777837639 | 19.44° C | 53% | 1013.6 hPa | 0 mm | - | 337 W/m² | - |
| 1777837335 | 19.44° C | 52% | 1013.5 hPa | 0 mm | - | 428 W/m² | - |
| 1777837031 | 20° C | 52% | 1013.4 hPa | 0 mm | - | 424 W/m² | - |
| 1777836728 | 19.44° C | 52% | 1013.6 hPa | 0 mm | - | 426 W/m² | - |
| 1777836423 | 20° C | 52% | 1013.5 hPa | 0 mm | - | 471 W/m² | - |
| 1777836119 | 19.44° C | 52% | 1013.5 hPa | 0 mm | - | 456 W/m² | - |
| 1777835815 | 19.44° C | 54% | 1013.7 hPa | 0 mm | - | 454 W/m² | - |
* Rain latest hour (hover to see other rain measurements)
** Current wind speed in m/s (hover to see current wind gust speed)